O.t. Ideaal — PBHH — position and weather

sailwx.info

Track history (hours):
 
Tides and Currents Weather Stations Pressure Air Temp Water Temp Dewpoint Dewpoint Depression Visibility Wind Speed Wind Dir Waves Ship Positions

O.t. Ideaal

Last reported at 2017-Oct-27 22:22 UTC. Time now 2017-Dec-16 18:57 UTC.
Position N 35°37' E 014°30'.
Warning: this ship's position is 49 days out of date.

Length 89 m; draft 4.3 m.

Type: Cargo ship. MMSI: 244796000.

Date/timePositionNaut miles runAvg speedWind from/ knotsBaromVisibWave heightAir tempDewpointWater temp
2017-Oct-27 22:22N 35°37' E 014°30'411.5
2017-Oct-27 22:00N 35°38' E 014°25'611.5
2017-Oct-27 21:30N 35°40' E 014°18'611.4
2017-Oct-27 21:00N 35°43' E 014°12'611.5
2017-Oct-27 20:30N 35°47' E 014°06'1711.4
2017-Oct-27 19:02N 35°56' E 013°50'111.5
2017-Oct-27 18:56N 35°57' E 013°48'611.5
2017-Oct-27 18:25N 36°00' E 013°42'511.5
2017-Oct-27 17:59N 36°03' E 013°38'611.4
2017-Oct-27 17:29N 36°07' E 013°32'611.4
2017-Oct-27 16:57N 36°10' E 013°26'5711.2
2017-Oct-27 11:52N 36°43' E 012°28'611.4
2017-Oct-27 11:18N 36°47' E 012°21'11211.7
2017-Oct-27 01:44N 37°33' E 010°13'312.7
2017-Oct-27 01:30N 37°33' E 010°10'612.6
2017-Oct-27 01:00N 37°34' E 010°02'912.3
2017-Oct-27 00:16N 37°34' E 009°50'312.4
2017-Oct-27 00:00N 37°34' E 009°46'612.4
2017-Oct-26 23:29N 37°34' E 009°38'612.3
2017-Oct-26 23:00N 37°35' E 009°31'812.3
2017-Oct-26 22:19N 37°35' E 009°20'412.2
2017-Oct-26 22:00N 37°35' E 009°15'612.2
2017-Oct-26 21:30N 37°35' E 009°07'611.9
2017-Oct-26 21:00N 37°36' E 008°60'611.9
2017-Oct-26 20:29N 37°36' E 008°52'612.0
2017-Oct-26 20:00N 37°35' E 008°45'13311.6
2017-Oct-26 08:34N 37°19' E 005°58'13710.0
2017-Oct-25 18:47N 36°53' E 003°09'  
2017-Oct-23 07:32N 35°59' W 005°16'112.4
2017-Oct-23 07:29N 35°59' W 005°16'11911.5
2017-Oct-22 21:09N 36°13' W 007°42'2411.5
2017-Oct-22 19:03N 36°19' W 008°11'112.1
2017-Oct-22 19:00N 36°19' W 008°12'811.4
2017-Oct-22 18:17N 36°21' W 008°22'311.5
2017-Oct-22 17:59N 36°22' W 008°26'611.7
2017-Oct-22 17:30N 36°24' W 008°33'1411.2
2017-Oct-22 16:14N 36°27' W 008°50'210.9
2017-Oct-22 16:00N 36°28' W 008°53'12410.6
2017-Oct-22 04:18N 38°20' W 010°01'411.2
2017-Oct-22 04:00N 38°23' W 010°02'511.1
2017-Oct-22 03:31N 38°28' W 010°04'611.3
2017-Oct-22 03:00N 38°34' W 010°06'611.2
2017-Oct-22 02:30N 38°39' W 010°07'611.4
2017-Oct-22 02:00N 38°45' W 010°08'611.4
2017-Oct-22 01:30N 38°51' W 010°08'611.5
2017-Oct-22 01:00N 38°56' W 010°08'611.2
2017-Oct-22 00:30N 39°02' W 010°08'611.4
2017-Oct-22 00:00N 39°08' W 010°08'  
2017-Oct-19 04:30N 49°16' W 004°53'17 9.9
2017-Oct-19 02:47N 49°25' W 004°31'710.5
2017-Oct-19 02:09N 49°28' W 004°22'1411.6
2017-Oct-19 00:58N 49°35' W 004°03'612.6
2017-Oct-19 00:30N 49°38' W 003°56'713.1
2017-Oct-19 00:00N 49°42' W 003°47'713.6
2017-Oct-18 23:30N 49°45' W 003°38'713.7
2017-Oct-18 23:00N 49°48' W 003°29'713.5
2017-Oct-18 22:27N 49°52' W 003°19'713.2
2017-Oct-18 21:55N 49°56' W 003°09'512.8
2017-Oct-18 21:30N 49°58' W 003°02'612.0
2017-Oct-18 20:59N 50°01' W 002°53'9411.8
2017-Oct-18 13:03N 50°26' W 000°32'314.5
2017-Oct-18 12:51N 50°27' W 000°28'514.2
2017-Oct-18 12:30N 50°29' W 000°20'713.7
2017-Oct-18 12:00N 50°30' W 000°10'713.3
2017-Oct-18 11:30N 50°32' E 000°00'612.9
2017-Oct-18 11:00N 50°34' E 000°10'612.5
2017-Oct-18 10:30N 50°36' E 000°20'612.1
2017-Oct-18 10:00N 50°38' E 000°29'611.7
2017-Oct-18 09:30N 50°40' E 000°37'611.7
2017-Oct-18 09:00N 50°43' E 000°45'611.8
2017-Oct-18 08:30N 50°47' E 000°52'612.1
2017-Oct-18 07:59N 50°50' E 001°00'913.1
2017-Oct-18 07:19N 50°56' E 001°11'514.4
2017-Oct-18 06:59N 50°59' E 001°17'715.6
2017-Oct-18 06:30N 51°04' E 001°26'816.4
2017-Oct-18 06:00N 51°09' E 001°36'815.5
2017-Oct-18 05:30N 51°14' E 001°45'714.6
2017-Oct-18 05:01N 51°21' E 001°50'713.5
2017-Oct-18 04:30N 51°27' E 001°55'612.8
2017-Oct-18 04:00N 51°32' E 002°02'612.4
2017-Oct-18 03:30N 51°36' E 002°09'612.1
2017-Oct-18 03:01N 51°40' E 002°16'611.7
2017-Oct-18 02:31N 51°44' E 002°22'611.1
2017-Oct-18 02:00N 51°48' E 002°29'511.0
2017-Oct-18 01:31N 51°53' E 002°34'510.8
2017-Oct-18 01:00N 51°57' E 002°39'510.8
2017-Oct-18 00:30N 52°01' E 002°45'610.9
2017-Oct-17 23:57N 52°06' E 002°51'511.2
2017-Oct-17 23:28N 52°10' E 002°56'611.5
2017-Oct-17 22:58N 52°15' E 003°02'612.0
2017-Oct-17 22:26N 52°20' E 003°08'  
Track history (hours):
 
Tides and Currents Weather Stations Pressure Air Temp Water Temp Dewpoint Dewpoint Depression Visibility Wind Speed Wind Dir Waves Ship Positions

O.t. Ideaal

Last reported at 2017-Oct-27 22:22 UTC. Time now 2017-Dec-16 18:57 UTC.
Position N 35°37' E 014°30'.
Warning: this ship's position is 49 days out of date.

Length 89 m; draft 4.3 m.

Type: Cargo ship. MMSI: 244796000.

Date/timePositionNaut miles runAvg speedWind from/ knotsBaromVisibWave heightAir tempDewpointWater temp
2017-Oct-27 22:22N 35°37' E 014°30'411.5
2017-Oct-27 22:00N 35°38' E 014°25'611.5
2017-Oct-27 21:30N 35°40' E 014°18'611.4
2017-Oct-27 21:00N 35°43' E 014°12'611.5
2017-Oct-27 20:30N 35°47' E 014°06'1711.4
2017-Oct-27 19:02N 35°56' E 013°50'111.5
2017-Oct-27 18:56N 35°57' E 013°48'611.5
2017-Oct-27 18:25N 36°00' E 013°42'511.5
2017-Oct-27 17:59N 36°03' E 013°38'611.4
2017-Oct-27 17:29N 36°07' E 013°32'611.4
2017-Oct-27 16:57N 36°10' E 013°26'5711.2
2017-Oct-27 11:52N 36°43' E 012°28'611.4
2017-Oct-27 11:18N 36°47' E 012°21'11211.7
2017-Oct-27 01:44N 37°33' E 010°13'312.7
2017-Oct-27 01:30N 37°33' E 010°10'612.6
2017-Oct-27 01:00N 37°34' E 010°02'912.3
2017-Oct-27 00:16N 37°34' E 009°50'312.4
2017-Oct-27 00:00N 37°34' E 009°46'612.4
2017-Oct-26 23:29N 37°34' E 009°38'612.3
2017-Oct-26 23:00N 37°35' E 009°31'812.3
2017-Oct-26 22:19N 37°35' E 009°20'412.2
2017-Oct-26 22:00N 37°35' E 009°15'612.2
2017-Oct-26 21:30N 37°35' E 009°07'611.9
2017-Oct-26 21:00N 37°36' E 008°60'611.9
2017-Oct-26 20:29N 37°36' E 008°52'612.0
2017-Oct-26 20:00N 37°35' E 008°45'13311.6
2017-Oct-26 08:34N 37°19' E 005°58'13710.0
2017-Oct-25 18:47N 36°53' E 003°09'  
2017-Oct-23 07:32N 35°59' W 005°16'112.4
2017-Oct-23 07:29N 35°59' W 005°16'11911.5
2017-Oct-22 21:09N 36°13' W 007°42'2411.5
2017-Oct-22 19:03N 36°19' W 008°11'112.1
2017-Oct-22 19:00N 36°19' W 008°12'811.4
2017-Oct-22 18:17N 36°21' W 008°22'311.5
2017-Oct-22 17:59N 36°22' W 008°26'611.7
2017-Oct-22 17:30N 36°24' W 008°33'1411.2
2017-Oct-22 16:14N 36°27' W 008°50'210.9
2017-Oct-22 16:00N 36°28' W 008°53'12410.6
2017-Oct-22 04:18N 38°20' W 010°01'411.2
2017-Oct-22 04:00N 38°23' W 010°02'511.1
2017-Oct-22 03:31N 38°28' W 010°04'611.3
2017-Oct-22 03:00N 38°34' W 010°06'611.2
2017-Oct-22 02:30N 38°39' W 010°07'611.4
2017-Oct-22 02:00N 38°45' W 010°08'611.4
2017-Oct-22 01:30N 38°51' W 010°08'611.5
2017-Oct-22 01:00N 38°56' W 010°08'611.2
2017-Oct-22 00:30N 39°02' W 010°08'611.4
2017-Oct-22 00:00N 39°08' W 010°08'  
2017-Oct-19 04:30N 49°16' W 004°53'17 9.9
2017-Oct-19 02:47N 49°25' W 004°31'710.5
2017-Oct-19 02:09N 49°28' W 004°22'1411.6
2017-Oct-19 00:58N 49°35' W 004°03'612.6
2017-Oct-19 00:30N 49°38' W 003°56'713.1
2017-Oct-19 00:00N 49°42' W 003°47'713.6
2017-Oct-18 23:30N 49°45' W 003°38'713.7
2017-Oct-18 23:00N 49°48' W 003°29'713.5
2017-Oct-18 22:27N 49°52' W 003°19'713.2
2017-Oct-18 21:55N 49°56' W 003°09'512.8
2017-Oct-18 21:30N 49°58' W 003°02'612.0
2017-Oct-18 20:59N 50°01' W 002°53'9411.8
2017-Oct-18 13:03N 50°26' W 000°32'314.5
2017-Oct-18 12:51N 50°27' W 000°28'514.2
2017-Oct-18 12:30N 50°29' W 000°20'713.7
2017-Oct-18 12:00N 50°30' W 000°10'713.3
2017-Oct-18 11:30N 50°32' E 000°00'612.9
2017-Oct-18 11:00N 50°34' E 000°10'612.5
2017-Oct-18 10:30N 50°36' E 000°20'612.1
2017-Oct-18 10:00N 50°38' E 000°29'611.7
2017-Oct-18 09:30N 50°40' E 000°37'611.7
2017-Oct-18 09:00N 50°43' E 000°45'611.8
2017-Oct-18 08:30N 50°47' E 000°52'612.1
2017-Oct-18 07:59N 50°50' E 001°00'913.1
2017-Oct-18 07:19N 50°56' E 001°11'514.4
2017-Oct-18 06:59N 50°59' E 001°17'715.6
2017-Oct-18 06:30N 51°04' E 001°26'816.4
2017-Oct-18 06:00N 51°09' E 001°36'815.5
2017-Oct-18 05:30N 51°14' E 001°45'714.6
2017-Oct-18 05:01N 51°21' E 001°50'713.5
2017-Oct-18 04:30N 51°27' E 001°55'612.8
2017-Oct-18 04:00N 51°32' E 002°02'612.4
2017-Oct-18 03:30N 51°36' E 002°09'612.1
2017-Oct-18 03:01N 51°40' E 002°16'611.7
2017-Oct-18 02:31N 51°44' E 002°22'611.1
2017-Oct-18 02:00N 51°48' E 002°29'511.0
2017-Oct-18 01:31N 51°53' E 002°34'510.8
2017-Oct-18 01:00N 51°57' E 002°39'510.8
2017-Oct-18 00:30N 52°01' E 002°45'610.9
2017-Oct-17 23:57N 52°06' E 002°51'511.2
2017-Oct-17 23:28N 52°10' E 002°56'611.5
2017-Oct-17 22:58N 52°15' E 003°02'612.0
2017-Oct-17 22:26N 52°20' E 003°08'  

Dump ship's entire track history